Total_Precipitation_Accumulation
0.20 0.47 0.88 1.47 1.91 2.15 1.86 1.25 0.89 0.81 0.82 0.77 0.82 0.88 0.94 1.04 1.58 2.66 2.48 2.00 1.78 1.66 1.64 1.87 2.14 2.07 2.20 2.24 2.20 2.22 2.14 2.14 2.23 2.30 2.36 2.37 2.28 2.25 2.17 2.08 2.14 2.16 2.14 2.25 2.22 2.00 1.86 1.70 1.58
0.33 0.70 1.14 1.59 2.14 2.28 1.84 1.11 0.82 0.80 0.75 0.63 0.67 0.84 0.97 0.93 1.05 1.65 2.03 1.86 1.40 1.32 1.43 1.53 1.94 1.98 1.87 1.78 1.85 2.00 1.94 1.90 1.95 2.12 2.35 2.49 2.52 2.40 2.32 2.23 2.21 2.15 2.09 2.25 2.12 1.88 1.65 1.48 1.45
0.50 0.89 1.33 1.61 1.58 1.66 1.44 0.89 0.69 0.56 0.66 0.71 0.71 0.73 0.97 1.10 1.11 1.46 1.73 1.47 1.12 1.07 1.27 1.56 1.76 1.77 1.65 1.56 1.65 1.81 1.73 1.75 1.82 1.91 2.16 2.34 2.48 2.58 2.54 2.35 2.17 2.04 2.06 2.15 2.00 1.76 1.50 1.32 1.32
0.74 1.03 1.14 1.22 0.95 0.88 0.79 0.63 0.50 0.46 0.56 0.63 0.75 0.91 1.09 1.20 1.23 1.33 1.31 1.10 0.90 0.97 1.15 1.43 1.62 1.55 1.42 1.39 1.52 1.64 1.64 1.69 1.72 1.73 1.97 2.14 2.20 2.25 2.30 2.26 2.03 1.89 1.92 1.93 2.06 1.75 1.50 1.36 1.39
0.78 0.99 1.16 0.92 0.75 0.77 0.67 0.52 0.43 0.41 0.52 0.65 0.70 1.03 1.47 1.49 1.20 1.08 1.05 1.03 0.91 0.98 1.17 1.32 1.50 1.46 1.43 1.47 1.46 1.49 1.62 1.62 1.57 1.63 1.82 2.03 2.05 2.19 2.18 2.01 1.75 1.66 1.81 1.86 1.94 1.79 1.56 1.40 1.42
0.73 0.87 0.89 0.70 0.65 0.62 0.54 0.43 0.41 0.40 0.50 0.71 0.69 1.01 1.82 1.79 1.30 1.08 0.93 0.92 0.88 0.87 1.04 1.18 1.38 1.41 1.43 1.44 1.41 1.43 1.43 1.42 1.48 1.59 1.74 1.78 1.85 2.00 1.95 1.85 1.71 1.55 1.70 1.74 1.67 1.79 1.62 1.47 1.38
0.67 0.68 0.59 0.57 0.53 0.55 0.49 0.40 0.39 0.37 0.55 0.85 0.73 1.07 1.92 2.06 1.39 1.05 1.00 0.96 0.92 0.85 0.96 1.18 1.35 1.40 1.40 1.41 1.37 1.43 1.49 1.41 1.42 1.51 1.66 1.75 1.74 1.70 1.64 1.70 1.72 1.55 1.55 1.53 1.50 1.67 1.74 1.57 1.41
0.39 0.46 0.43 0.44 0.41 0.43 0.36 0.30 0.31 0.47 0.62 0.74 0.65 1.03 1.87 1.87 1.29 1.15 1.21 1.19 1.27 1.25 1.20 1.16 1.18 1.27 1.31 1.27 1.40 1.52 1.55 1.46 1.41 1.50 1.67 1.82 1.71 1.62 1.54 1.46 1.59 1.59 1.50 1.44 1.42 1.57 1.69 1.50 1.47
0.29 0.43 0.43 0.37 0.31 0.29 0.26 0.25 0.28 0.44 0.62 0.80 0.86 1.01 1.33 1.22 1.18 1.32 1.53 1.68 1.74 1.84 1.83 1.53 1.32 1.29 1.37 1.26 1.31 1.64 1.75 1.65 1.71 1.85 1.95 2.09 2.09 1.87 1.85 1.77 1.87 1.79 1.71 1.68 1.69 1.70 1.85 1.64 1.45
0.26 0.35 0.30 0.19 0.17 0.21 0.19 0.23 0.32 0.52 0.78 1.09 1.12 1.15 1.37 1.34 1.20 1.36 1.57 1.82 2.03 2.31 2.31 1.97 1.71 1.44 1.29 1.14 1.39 1.78 1.76 1.87 2.04 2.18 2.09 2.35 2.56 2.42 1.94 2.19 2.52 2.44 2.39 2.24 2.21 2.14 1.95 1.87 1.71
0.22 0.21 0.16 0.13 0.12 0.15 0.18 0.21 0.32 0.59 1.03 1.49 1.74 1.79 1.66 1.52 1.53 1.60 1.70 2.05 2.45 2.66 2.51 2.12 1.91 1.70 1.42 1.49 1.47 1.70 2.02 2.28 2.19 2.02 2.05 2.46 2.37 2.15 2.14 2.35 2.55 2.73 2.58 2.43 2.49 2.56 2.32 2.45 2.81
0.12 0.11 0.09 0.10 0.10 0.14 0.17 0.21 0.33 0.57 1.00 1.25 1.47 1.78 1.90 1.81 1.97 2.03 2.04 2.42 2.80 2.80 2.53 2.23 2.00 1.79 1.67 1.62 1.61 1.74 1.87 2.10 2.16 2.27 2.19 2.40 2.78 2.70 2.65 2.83 2.82 2.90 3.00 3.32 3.14 3.26 3.06 2.94 2.93
0.08 0.08 0.08 0.10 0.12 0.14 0.15 0.25 0.39 0.62 0.74 0.90 1.05 1.23 1.53 1.96 2.38 2.57 2.69 3.03 3.03 2.94 2.79 2.53 2.16 2.11 2.04 2.16 2.25 1.96 2.01 2.12 2.37 2.67 2.63 2.60 2.93 2.93 2.96 3.03 3.13 2.94 2.99 3.20 3.50 3.38 3.46 3.50 3.21
0.09 0.08 0.09 0.13 0.14 0.14 0.20 0.35 0.42 0.68 0.70 0.78 0.98 1.20 1.75 2.37 2.62 2.97 3.37 3.64 3.57 3.41 3.43 3.17 2.75 2.71 2.70 2.59 2.60 2.53 2.30 2.47 2.58 2.76 2.71 2.79 3.04 3.20 3.16 2.99 3.08 2.94 2.91 3.06 3.33 3.38 3.82 3.82 3.69
0.09 0.11 0.15 0.16 0.18 0.19 0.29 0.56 0.61 0.73 0.76 0.86 1.20 1.40 1.85 2.25 2.59 2.76 3.23 3.58 3.59 3.58 3.79 3.74 3.53 3.54 3.50 3.28 3.03 2.81 2.72 2.68 2.94 3.06 2.95 2.99 3.03 3.22 3.19 3.12 2.97 2.94 3.03 3.28 3.38 3.44 3.79 3.79 3.72
0.15 0.23 0.32 0.25 0.22 0.24 0.39 0.90 0.76 0.74 0.93 1.20 1.42 1.55 1.80 2.02 2.44 2.59 2.96 3.48 3.77 3.79 4.01 4.23 4.13 4.16 4.03 3.90 3.64 3.30 3.15 3.17 3.12 3.04 3.08 2.98 3.06 3.12 3.31 3.15 2.88 2.97 2.99 3.27 3.66 3.78 4.00 4.13 4.08
0.24 0.33 0.43 0.40 0.30 0.27 0.46 0.95 0.92 0.94 1.07 1.20 1.34 1.59 1.74 1.75 2.14 2.62 2.94 3.53 3.97 4.12 4.52 4.91 4.97 4.90 4.59 4.25 4.07 3.94 3.76 3.56 3.30 3.23 3.17 3.02 2.97 2.95 3.22 3.14 3.06 3.08 3.34 3.42 3.25 3.87 4.18 4.32 4.24
0.29 0.28 0.34 0.41 0.35 0.34 0.51 0.70 0.82 0.99 1.14 1.26 1.29 1.44 1.47 1.60 2.08 2.65 3.02 3.38 4.06 4.60 5.23 5.34 5.35 5.61 5.36 5.02 4.82 4.62 4.19 3.83 3.53 3.40 3.25 2.98 2.92 2.86 3.19 2.98 2.98 3.12 3.49 3.65 3.76 4.23 4.26 4.11 4.25
0.21 0.27 0.38 0.45 0.38 0.49 0.67 0.81 0.92 1.03 1.10 1.29 1.39 1.33 1.38 1.67 2.09 2.55 2.98 3.42 3.84 4.42 5.05 5.71 5.90 5.77 5.55 5.26 4.82 4.45 4.03 3.79 3.52 3.22 3.00 2.92 2.89 3.01 3.48 3.14 3.45 3.36 3.45 3.53 3.69 4.00 4.00 3.77 4.05
0.19 0.29 0.40 0.49 0.42 0.50 0.71 0.97 1.11 1.09 1.07 1.15 1.34 1.46 1.49 1.75 2.09 2.53 3.04 3.32 3.51 3.84 4.30 4.78 5.10 4.79 4.44 4.26 4.18 4.05 3.96 3.54 3.39 3.32 3.38 3.07 3.09 3.10 3.17 3.43 3.34 3.39 3.53 3.33 3.42 3.79 3.65 3.21 3.61
0.20 0.25 0.28 0.35 0.41 0.55 0.82 1.26 1.31 1.09 0.99 1.03 1.16 1.43 1.64 1.69 1.99 2.32 2.77 3.00 3.13 3.31 3.45 3.62 3.84 3.91 3.92 3.97 4.05 4.18 4.33 4.01 3.87 3.80 3.72 3.24 3.14 3.14 3.22 3.16 3.11 3.28 3.23 3.20 3.20 3.40 3.53 3.36 3.35
0.25 0.19 0.17 0.21 0.41 0.77 0.89 1.51 1.52 1.22 1.15 1.12 1.15 1.28 1.38 1.54 1.66 1.79 2.11 2.54 2.55 2.65 2.89 3.39 3.61 3.70 3.89 4.14 4.15 4.19 4.16 4.09 4.07 4.16 4.09 3.90 3.62 3.39 3.15 2.98 2.95 2.97 2.87 2.98 2.74 3.03 3.26 3.44 3.17
0.17 0.15 0.18 0.22 0.40 0.65 0.72 1.09 1.31 1.32 1.27 1.13 1.08 1.17 1.24 1.32 1.43 1.54 1.75 2.17 2.24 2.22 2.54 3.14 3.70 3.91 4.05 4.24 4.34 4.59 4.41 4.26 4.12 4.17 4.24 4.01 3.74 3.41 3.02 2.99 3.00 2.95 2.83 2.70 2.63 2.88 2.84 2.96 3.00
0.13 0.18 0.28 0.38 0.62 0.99 0.78 0.85 1.27 1.27 1.10 1.01 0.90 0.94 1.04 1.00 1.07 1.28 1.60 2.05 2.24 2.34 2.65 3.09 3.57 3.89 4.04 4.13 4.15 4.24 4.25 4.25 4.02 3.90 3.61 3.20 3.08 2.98 2.74 2.70 2.74 2.67 2.69 2.70 2.65 2.67 2.64 2.72 2.83
0.14 0.27 0.74 1.16 1.42 1.39 0.75 0.79 1.13 0.97 0.89 0.82 0.90 0.90 0.82 0.83 0.91 0.97 1.14 1.27 1.42 1.61 1.91 2.25 2.70 3.03 3.20 3.34 3.40 3.39 3.60 3.63 3.34 3.07 2.87 2.56 2.34 2.24 2.23 2.32 2.40 2.33 2.40 2.45 2.63 2.52 2.42 2.52 2.71
0.14 0.20 0.54 0.85 0.99 1.05 0.91 1.22 1.21 0.85 0.71 0.71 0.79 0.77 0.64 0.60 0.58 0.63 0.74 0.79 1.04 1.35 1.75 2.03 2.18 2.35 2.54 2.66 2.71 2.75 2.84 2.78 2.58 2.66 2.40 2.20 2.06 1.97 2.05 2.14 2.13 2.10 2.14 2.10 2.43 2.28 2.23 2.34 2.40
0.11 0.13 0.19 0.30 0.42 0.76 1.04 1.37 1.27 0.94 0.85 0.77 0.65 0.58 0.52 0.43 0.42 0.48 0.52 0.61 0.86 1.15 1.44 1.62 1.78 2.03 2.26 2.43 2.41 2.36 2.22 2.22 2.28 2.25 2.10 2.01 2.05 1.97 2.06 2.01 2.05 2.05 2.10 2.18 2.32 2.19 2.16 2.37 2.33
0.12 0.16 0.19 0.24 0.46 0.78 1.02 1.34 1.45 1.16 1.02 0.82 0.76 0.78 0.55 0.41 0.39 0.47 0.52 0.59 0.75 0.88 1.12 1.30 1.53 1.86 2.05 2.15 2.11 2.02 2.03 1.98 2.04 2.02 1.99 1.95 2.00 2.05 2.07 2.04 2.13 2.05 2.02 2.06 2.13 1.94 1.96 2.22 2.29
0.16 0.17 0.17 0.20 0.28 0.54 0.97 1.20 1.06 0.98 0.86 0.71 0.71 0.69 0.60 0.55 0.43 0.40 0.47 0.52 0.65 0.83 1.04 1.34 1.58 1.72 1.78 1.80 1.82 1.90 1.88 1.87 1.96 1.95 1.90 1.93 2.06 2.07 2.00 1.95 1.97 1.98 1.94 2.00 2.05 1.85 1.98 2.13 2.19
0.17 0.17 0.17 0.23 0.25 0.29 0.55 0.89 0.74 0.69 0.73 0.69 0.67 0.68 0.67 0.57 0.54 0.52 0.61 0.66 0.74 0.87 1.02 1.33 1.64 1.71 1.74 1.82 1.96 2.10 2.16 2.20 2.17 1.99 1.87 1.92 1.99 2.01 2.02 2.01 1.96 1.86 1.89 2.09 2.16 2.03 2.11 2.21 2.18